Martinsburg, WV

7:31 AM EST on December 18, 2017 (GMT -0500)
Eastern W Va Regional-Shepherd

Weather History for KMRB - June, 2012

Change the Weather History Date:

Sunday, June 3, 2012

  Actual Average Record
Temperature  
Mean Temperature 66 °F 67 °F  
Max Temperature 78 °F 78 °F 97 °F (1936)
Min Temperature 53 °F 55 °F 42 °F (1966)
Degree Days  
Heating Degree Days 0 2  
Month to date heating degree days 3 6  
Since 1 June heating degree days 3 6  
Since 1 July heating degree days 4001 5231  
Cooling Degree Days 1 4  
Month to date cooling degree days 4 10  
Year to date cooling degree days 158 67  
Since 1 June cooling degree days 4 10  
Growing Degree Days 16 (Base 50)    
Moisture  
Dew Point 48 °F    
Average Humidity 60    
Maximum Humidity 86    
Minimum Humidity 33    
Precipitation  
Precipitation 0.05 in 0.13 in 1.51 in (1963)
Month to date precipitation 0.84 0.39  
Year to date precipitation 14.69 16.12  
Sea Level Pressure  
Sea Level Pressure 29.80 in    
Wind  
Wind Speed 8 mph (SW)    
Max Wind Speed 20 mph    
Max Gust Speed 26 mph    
Visibility 10 miles    
Events Rain    
T = Trace of Precipitation, MM = Missing Value Source: NWS Daily Summary

Daily Weather History Graph

Daily Weather History Graph

Search for Another Location

Airport or City:

Trip Planner

Search our weather history database for the weather conditions in past years. The results will help you decide how hot, cold, wet, or windy it might be!

Date:

Astronomy

Jun. 03, 2012 Rise Set
Actual Time 5:46 AM EDT 8:34 PM EDT
Civil Twilight 5:14 AM EDT 9:06 PM EDT
Nautical Twilight 4:34 AM EDT 9:46 PM EDT
Astronomical Twilight 3:48 AM EDT 10:32 PM EDT
Moon 7:58 PM EDT (6/3) 4:52 AM EDT (6/3)
Length of Visible Light 15h 52m
Length of Day
14h 48m
Waxing Gibbous, 99% of the Moon is Illuminated
Jun 3
Waxing Gibbous
Jun 4
Full
Jun 11
Last Quarter
Jun 19
New
Jun 26
First Quarter

Hourly Weather History & Observations

Time (EDT) Temp. Dew Point Humidity Pressure Visibility Wind Dir Wind Speed Gust Speed Precip Events Conditions
12:53 AM 57.0 °F 45.0 °F 64% 29.85 in 10.0 mi South 4.6 mph - N/A   Clear
1:53 AM 55.0 °F 46.0 °F 72% 29.84 in 10.0 mi SSW 5.8 mph - N/A   Clear
2:53 AM 55.0 °F 45.0 °F 69% 29.83 in 10.0 mi SSW 4.6 mph - N/A   Partly Cloudy
3:53 AM 55.9 °F 45.0 °F 67% 29.83 in 10.0 mi SW 8.1 mph - N/A   Clear
4:53 AM 55.9 °F 45.0 °F 67% 29.83 in 10.0 mi SSW 6.9 mph - N/A   Clear
5:53 AM 55.9 °F 45.0 °F 67% 29.84 in 10.0 mi SSW 4.6 mph - N/A   Clear
6:53 AM 57.0 °F 46.0 °F 67% 29.85 in 10.0 mi South 5.8 mph - N/A   Clear
7:53 AM 61.0 °F 48.0 °F 62% 29.86 in 10.0 mi SSW 4.6 mph - N/A   Clear
8:53 AM 64.0 °F 48.9 °F 58% 29.86 in 10.0 mi SW 5.8 mph - N/A   Clear
9:53 AM 68.0 °F 50.0 °F 52% 29.84 in 10.0 mi WSW 9.2 mph - N/A   Clear
10:53 AM 71.1 °F 50.0 °F 47% 29.83 in 10.0 mi WSW 15.0 mph - N/A   Clear
11:53 AM 73.0 °F 50.0 °F 44% 29.83 in 10.0 mi West 15.0 mph 21.9 mph N/A   Clear
12:53 PM 73.9 °F 50.0 °F 43% 29.82 in 10.0 mi West 10.4 mph 20.7 mph N/A   Clear
1:53 PM 75.0 °F 50.0 °F 41% 29.80 in 10.0 mi WSW 15.0 mph 21.9 mph N/A   Mostly Cloudy
2:53 PM 78.1 °F 48.0 °F 35% 29.78 in 10.0 mi West 12.7 mph - N/A   Partly Cloudy
3:53 PM 73.9 °F 46.0 °F 37% 29.75 in 10.0 mi West 8.1 mph - N/A   Mostly Cloudy
4:53 PM 77.0 °F 48.0 °F 36% 29.73 in 10.0 mi WSW 12.7 mph - N/A   Partly Cloudy
5:53 PM 77.0 °F 46.9 °F 34% 29.73 in 10.0 mi West 11.5 mph - N/A   Clear
6:53 PM 75.0 °F 46.0 °F 36% 29.72 in 10.0 mi West 10.4 mph - N/A   Clear
7:53 PM 69.1 °F 48.9 °F 49% 29.75 in 10.0 mi NNE 5.8 mph - N/A   Mostly Cloudy
8:53 PM 64.9 °F 51.1 °F 61% 29.77 in 10.0 mi NNE 3.5 mph - N/A   Scattered Clouds
9:53 PM 63.0 °F 53.1 °F 70% 29.77 in 9.0 mi ESE 5.8 mph - 0.00 in Rain Light Rain
10:53 PM 61.0 °F 52.0 °F 72% 29.75 in 10.0 mi SSW 10.4 mph - 0.05 in   Overcast
11:53 PM 57.9 °F 54.0 °F 87% 29.74 in 10.0 mi SW 3.5 mph - 0.00 in   Clear